Weather History for Bellingham, WA

Change the Weather History Date:

Sunday, November 10, 2013

  Actual Average Record
Temperature  
Mean Temperature 47 °F 45 °F  
Max Temperature 51 °F 51 °F 63 °F (1952)
Min Temperature 42 °F 38 °F 25 °F (1982)
Degree Days  
Heating Degree Days 18 20  
Month to date heating degree days 191 195  
Cooling Degree Days 0 0  
Month to date cooling degree days 0 0  
Year to date cooling degree days 95 42  
Moisture  
Dew Point 40 °F    
Average Humidity 79    
Maximum Humidity 96    
Minimum Humidity 61    
Precipitation  
Precipitation T in 0.20 in 1.64 in (1990)
Month to date precipitation 1.79 1.93  
Year to date precipitation 24.46 27.74  
Sea Level Pressure  
Sea Level Pressure 30.17 in    
Wind  
Wind Speed 6 mph (North)    
Max Wind Speed 17 mph    
Max Gust Speed 24 mph    
Visibility 10 miles    
Events      
T = Trace of Precipitation, MM = Missing Value Source: NWS Daily Summary

Daily Weather History Graph

Daily Weather History Graph

Search for Another Location

Airport:

Trip Planner

Search our weather history database for the weather conditions in past years. The results will help you decide how hot, cold, wet, or windy it might be!

Date:

Astronomy

Nov. 10, 2013 Rise Set
Actual Time 7:11 AM PST 4:35 PM PST
Civil Twilight 6:37 AM PST 5:09 PM PST
Nautical Twilight 5:59 AM PST 5:47 PM PST
Astronomical Twilight 5:22 AM PST 6:24 PM PST
Moon 1:16 PM PST (11/10) No Moon Set
Length of Visible Light 10h 32m
Length of Day
9h 24m
First Quarter, 56% of the Moon is Illuminated
Nov 10
First Quarter
Nov 17
Full
Nov 25
Last Quarter
Dec 2
New
Dec 9
First Quarter

Hourly Weather History & Observations

Time (PST) Temp. Windchill Dew Point Humidity Pressure Visibility Wind Dir Wind Speed Gust Speed Precip Events Conditions
12:53 AM 43.0 °F - 41.0 °F 93% 30.16 in 10.0 mi Calm Calm - N/A   Overcast
1:53 AM 43.0 °F - 41.0 °F 93% 30.16 in 9.0 mi Calm Calm - N/A   Overcast
2:53 AM 44.1 °F - 41.0 °F 89% 30.16 in 10.0 mi Calm Calm - N/A   Overcast
3:53 AM 44.1 °F 42.5 °F 41.0 °F 89% 30.15 in 10.0 mi North 3.5 mph - N/A   Overcast
4:53 AM 43.0 °F 40.3 °F 39.9 °F 89% 30.15 in 10.0 mi North 4.6 mph - N/A   Overcast
5:53 AM 44.1 °F 40.8 °F 41.0 °F 89% 30.16 in 10.0 mi North 5.8 mph - N/A   Partly Cloudy
6:53 AM 43.0 °F 39.5 °F 39.9 °F 89% 30.16 in 10.0 mi North 5.8 mph - N/A   Clear
7:53 AM 43.0 °F 39.5 °F 39.9 °F 89% 30.17 in 10.0 mi North 5.8 mph - N/A   Clear
8:53 AM 45.0 °F 41.8 °F 41.0 °F 86% 30.18 in 10.0 mi NNW 5.8 mph - N/A   Mostly Cloudy
9:53 AM 46.0 °F 41.9 °F 41.0 °F 83% 30.18 in 10.0 mi North 8.1 mph - N/A   Overcast
10:53 AM 46.9 °F - 41.0 °F 80% 30.19 in 10.0 mi North 5.8 mph - N/A   Overcast
11:53 AM 48.0 °F - 41.0 °F 77% 30.19 in 10.0 mi North 5.8 mph - N/A   Overcast
12:53 PM 50.0 °F - 41.0 °F 71% 30.18 in 10.0 mi North 5.8 mph - N/A   Overcast
1:53 PM 50.0 °F - 39.9 °F 68% 30.18 in 10.0 mi North 5.8 mph - N/A   Mostly Cloudy
2:53 PM 50.0 °F - 41.0 °F 71% 30.18 in 10.0 mi NNW 5.8 mph - N/A   Overcast
3:53 PM 48.9 °F - 42.1 °F 77% 30.18 in 10.0 mi NW 4.6 mph - N/A   Overcast
4:53 PM 48.0 °F - 42.1 °F 80% 30.17 in 10.0 mi WNW 4.6 mph - 0.00 in   Overcast
5:53 PM 46.9 °F - 43.0 °F 86% 30.17 in 10.0 mi NNW 3.5 mph - 0.00 in   Overcast
6:53 PM 46.9 °F - 42.1 °F 83% 30.18 in 10.0 mi NNW 5.8 mph - 0.00 in   Overcast
7:53 PM 48.9 °F - 39.0 °F 69% 30.17 in 10.0 mi NNE 10.4 mph 17.3 mph 0.00 in   Overcast
8:53 PM 48.9 °F - 39.0 °F 69% 30.17 in 10.0 mi NNE 9.2 mph 19.6 mph N/A   Mostly Cloudy
9:53 PM 50.0 °F - 37.9 °F 63% 30.17 in 10.0 mi NNE 10.4 mph - N/A   Clear
10:53 PM 50.0 °F - 37.0 °F 61% 30.17 in 10.0 mi NNE 15.0 mph 23.0 mph N/A   Overcast
11:53 PM 50.0 °F - 37.0 °F 61% 30.17 in 10.0 mi NNE 12.7 mph - N/A   Overcast